TDRS 13 (42915 NORAD) Tracking and Keplerian Element Data

This shows tracking and keplerian element data for the satellite.

Feedback or suggestion? Click here.




ElementValue
Catalog42915
NameTDRS 13
Epoch Orbit481
Epoch Day343.83672592
Epoch Year2018
RAAN330.9124
Inclination6.3986
Eccentricity0.0027245
Argument of Perigee6.265
Mean Anonmoly353.7865
Mean Motion1.00269783
Decay Rate-2.84E-06
L11 42915U 17047A 18343.83672592 -.00000284 00000-0 00000-0 0 9996
L22 42915 6.3986 330.9124 0027245 6.2650 353.7865 1.00269783 4812

Live tracking and technical data element details for TDRS 13 (NORAD 42915). TDRS 13 can be tracked NOW for your location showing map with azimuth and elevation plus other details from your city location.

Track the satellite on the map from your city or location and see movement details for azimuth, elevation, latitude, longitude, range, height, and movement on the map or in text.







IsCatalogInMostPopularTable: catalog: 42915, numindb: 149
Update: records affected: 1



GetName: 42915 TDRS 13

Hit Count: updated at: Tue, 11 Dec 2018 02:04:37 GMT